Regional Weather Roundup
Issued by NWS

Home | Current Version | Previous Version | Text Only | Print | Product List | Glossary On
Versions: 1 2 3 4 5 6 7 8 9 10 11 12 13 14 15 16 17 18 19 20 21 22 23 24 25 26 27 28 29 30 31 32 33 34 35 36 37 38 39 40 41 42 43 44 45 46 47 48 49 50
000
ASUS43 KDTX 170801
RWRMI
MICHIGAN HOURLY REGIONAL WEATHER ROUNDUP
NATIONAL WEATHER SERVICE DETROIT/PONTIAC MI
400 AM EDT THU AUG 17 2017

NOTE: "FAIR" INDICATES FEW OR NO CLOUDS BELOW 12,000 FEET WITH NO
SIGNIFICANT WEATHER AND/OR OBSTRUCTION TO VISIBILITY.

MIZ047>049-052>055-059>063-066>070-074>076-081>083-170900-
SOUTHEAST LOWER MICHIGAN

CITY           SKY/WX    TMP DP  RH WIND       PRES   REMARKS
ADRIAN         PTCLDY    70  55  59 SE3       29.92F
ALMA           CLOUDY    70  57  62 SE7       29.89F
ANN ARBOR      PTCLDY    70  63  78 E3        29.92F
BAD AXE        CLOUDY    68  59  72 SE7       29.95F
CARO           MOCLDY    68  56  65 SE8       29.92F
DETROIT CITY   MOCLDY    72  64  76 SE8       29.94F
DETROIT        CLOUDY    73  62  68 E6        29.93F
FLINT          CLOUDY    72  57  59 SE10      29.92F
GROSSE ILE     CLOUDY    74  64  69 SE8       29.91F
HILLSDALE      LGT RAIN  64  61  88 SE7       29.92S
HOWELL         CLOUDY    72  58  62 SE12      29.91F

CITY           SKY/WX    TMP DP  RH WIND       PRES   REMARKS
JACKSON        CLOUDY    71  62  73 SE6       29.91F
LAMBERTVILLE   CLOUDY    72  64  74 SE5       29.91F
LANSING        CLOUDY    72  59  63 SE10      29.89F
LAPEER         FAIR      67  59  76 CALM      29.95F
MASON          MOCLDY    72  61  68 SE10G17   29.90F
MONROE         MOCLDY    74  67  77 SE7       29.91F
MT. CLEMENS    CLOUDY    70  65  85 E7        29.93F
PONTIAC        MOCLDY    70  59  68 E8        29.93F
PORT HOPE        N/A     69  62  78 S8        29.94F
PORT HURON     CLOUDY    68  61  77 SE6       29.96F
TRI CITIES     CLOUDY    71  60  68 SE12      29.91F
MIDLAND        MOCLDY    70  59  69 E5        29.89F
TROY           MOCLDY    73  59  60 E5        29.96F
SAGINAW HB     CLOUDY    68  59  73 SE6       29.90F
$$
MIZ043>046-050>051-056>058-064>065-071>073-077>080-170900-
SOUTHWEST LOWER MICHIGAN

CITY           SKY/WX    TMP DP  RH WIND       PRES   REMARKS
BIG RAPIDS     RAIN      65  62  90 S5        29.87F
COLDWATER      CLOUDY    70  69  96 SE9       29.89S
FREMONT        HVY RAIN  69  69 100 SE3       29.85R
IONIA          CLOUDY    71  60  67 SE10      29.87F
LUDINGTON      RAIN      69  67  93 SE8       29.79F
MARSHALL       HVY RAIN  70  65  85 CALM      29.89F
MOUNT PLEASANT RAIN      69  60  73 E5        29.88F
SOUTH HAVEN    CLOUDY    73  71  93 S5        29.83S
$$
MIZ016>042-170900-
NORTHERN LOWER MICHIGAN

CITY           SKY/WX    TMP DP  RH WIND       PRES   REMARKS
ALPENA         MOCLDY    67  64  90 SE9       29.95F
BEAVER ISLAND  CLOUDY    68  60  75 E12G17    29.84F
BELLAIRE       MOCLDY    71  58  64 SE13G22   29.85F
CADILLAC       LGT RAIN  69  62  77 SE12G17   29.88F
CHARLEVOIX     MOCLDY    71  59  65 SE14      29.87F
FRANKFORT      LGT RAIN  70  69  98 SE12      29.80F
GAYLORD        CLOUDY    64  56  75 SE12      29.92F
GRAYLING       CLOUDY    66  57  74 E7        29.92F
HARBOR SPRINGS CLOUDY    65  57  74 E9        29.88F
HOUGHTON LAKE  CLOUDY    67  59  75 SE8       29.91F
OSCODA         CLOUDY    70  64  83 S7        29.93F
PELLSTON       CLOUDY    66  58  75 SE10      29.90F
ROGERS CITY    CLOUDY    64  60  86 SE7       29.95F
TRAVERSE CITY  CLOUDY    71  61  70 SE7       29.82F
$$
MIZ007>008-015-170900-
EASTERN UPPER MICHIGAN

CITY           SKY/WX    TMP DP  RH WIND       PRES   REMARKS
MACKINAC ISLAN CLOUDY    65  62  90 E12G21    29.91F
NEWBERRY       MOCLDY    62  61  97 E9        29.88F
S. S. MARIE    CLOUDY    63  59  87 E6        29.93F
MUNISING         N/A     66  64  93 S8        29.81F
$$
MIZ004>006-011>014-085-170900-
CENTRAL UPPER MICHIGAN

CITY           SKY/WX    TMP DP  RH WIND       PRES   REMARKS
MANISTIQUE     MOCLDY    66  60  80 E9        29.82F
SAWYER-GWINN   CLOUDY    64  62  93 SE7       29.80F
$$
MIZ001>003-009>011-084-170900-
WESTERN UPPER MICHIGAN

CITY           SKY/WX    TMP DP  RH WIND       PRES   REMARKS
IRON MOUNTAIN  RAIN      65  61  87 E7        29.75F FOG
HOUGHTON       CLOUDY    62  59  90 E8        29.79F
COPPER HARBOR    N/A     65  58  78 S8        29.81F
$$

ABBREVIATIONS USED IN REMARKS
   TC - TEMPERATURE IN CELSIUS
  WCI - WIND CHILL INDEX
   HX - HEAT INDEX
  VSB - VISIBILITY





USA.gov is the U.S. government's official web portal to all federal, state and local government web resources and services.